Volver al catálogo

FENGYUN 1C DEB

ActivoPO
NORAD 31715·DEBRIS·🇨🇳 China

Lanzado May 10, 1999 desde Taiyuan Satellite Launch Center

Loading…

Próximos Pases (próximas 24 horas)

TLE

ActualizadoSource: Space-Track

Época: Sep 11, 2026, 20:53 UTC

1 31715U 99025CDN 26254.87056323  .00002178  00000-0  42465-3 0  9997
2 31715  99.2721 118.1930 0182524  23.1936 337.7365 14.54176412656846

Sigue FENGYUN 1C DEB en tiempo real con AllMySat

Download on the App Store